Location: Antioch Baptist Church
(32.6696°N, 85.7327°W)
Time: 09:39:48
(UTC+00:00)

Cosmos-2242 - Pass Details

Date: 06 November 2020
Orbit: 592 x 616 km, 82.5° (Epoch: 03 December)

Event Time Altitude Azimuth Distance (km) Brightness Sun altitude
Rises 23:35:18 0° 180° (S) 2,818 6.6 -10.5°
Reaches altitude 10° 23:37:30 10° 178° (S) 1,924 5.7 -11.0°
Maximum altitude 23:41:43 71° 95° (E) 634 2.9 -11.8°
Drops below altitude 10° 23:46:01 10° 11° (N) 1,951 5.4 -12.7°
Sets 23:48:15 0° 9° (N) 2,862 6.3 -13.2°
